Regional Weather Roundup
Issued by NWS

Home | Current Version | Previous Version | Graphics & Text | Print | Product List | Glossary On
Versions: 1 2 3 4 5 6 7 8 9 10 11 12 13 14 15 16 17 18 19 20 21 22 23 24 25 26 27 28 29 30 31 32 33 34 35 36 37 38 39 40 41 42 43 44 45 46 47 48 49 50
000
ASUS43 KMKX 220659
RWRWI

WISCONSIN REGIONAL WEATHER ROUNDUP
NATIONAL WEATHER SERVICE MILWAUKEE/SULLIVAN WI
200 AM CDT SUN APR 22 2018

NOTE: "FAIR" INDICATES FEW OR NO CLOUDS BELOW 12,000 FEET WITH NO
SIGNIFICANT WEATHER AND/OR OBSTRUCTIONS TO VISIBILITY.

WIZ001-002-006>008-014>016-023>028-220800-
NORTHWEST WISCONSIN

CITY           SKY/WX    TMP DP  RH WIND       PRES   REMARKS
SUPERIOR ARPT  FAIR      28  25  88 CALM      30.34F
ASHLAND        FAIR      28  22  78 CALM      30.35F
HAYWARD        FAIR      28  21  75 CALM      30.35S
SIREN          FAIR      29  18  64 CALM      30.35S
CUMBERLAND     FAIR      30  21  69 CALM      30.35S
RICE LAKE      FAIR      30  27  88 CALM      30.37R
CHETEK         FAIR      30  24  76 CALM      30.36S
LADYSMITH      FAIR      32  25  74 CALM      30.36S
EAU CLAIRE     NOT AVBL
MENOMONIE      FAIR      36  31  82 CALM      30.35F
NEW RICHMOND   FAIR      32  28  85 CALM      30.35S
OSCEOLA        FAIR      32  26  79 CALM      30.37F
$$

WIZ003>005-009-010-017-018-220800-
NORTH CENTRAL WISCONSIN

CITY           SKY/WX    TMP DP  RH WIND       PRES   REMARKS
MANITOWISH WTR FAIR      27  20  74 CALM      30.35S
ARBOR VITAE    FAIR      32  22  66 CALM      30.35S
WOODRUFF       FAIR      32  22  66 CALM      30.35S
RHINELANDER    FAIR      27  23  85 CALM      30.35S
EAGLE RIVER    FAIR      27  19  71 CALM      30.34F
LAND O LAKES   FAIR      27  21  78 CALM      30.37S
PHILLIPS       FAIR      27  23  84 CALM      30.35S
TOMAHAWK       FAIR      26  22  84 CALM      30.37S
MEDFORD        FAIR      30  25  82 S3        30.35R
MERRILL          N/A     27  24  89 CALM      30.37S
$$

WIZ029-030-035-036-043>047-220800-
CENTRAL WISCONSIN

CITY           SKY/WX    TMP DP  RH WIND       PRES   REMARKS
WAUSAU         FAIR      31  26  82 CALM      30.34S
MOSINEE        FAIR      37  27  65 CALM      30.37S
MARSHFIELD     FAIR      38  27  64 CALM      30.34F
STEVENS POINT  FAIR      27  24  86 CALM      30.37S
WAUPACA        FAIR      32  27  83 CALM      30.37S
WAUTOMA        FAIR      28  24  85 CALM      30.37F
WISC RAPIDS    FAIR      33  24  69 CALM      30.36F
CAMP DOUGLAS   FAIR      31  29  91 CALM      30.35S
$$

WIZ011>013-019>022-031-037>040-048>050-220800-
NORTHEAST WISCONSIN

CITY           SKY/WX    TMP DP  RH WIND       PRES   REMARKS
ANTIGO         FAIR      29  28  92 CALM      30.36S
SHAWANO        FAIR      34  27  77 CALM      30.36F
OCONTO         FAIR      30  24  77 CALM      30.37S
STURGEON BAY   FAIR      35  23  61 E3        30.38S
GREEN BAY      FAIR      32  26  78 CALM      30.37S
MANITOWOC      FAIR      33  25  72 CALM      30.38F
APPLETON       FAIR      36  27  69 S5        30.36S WCI  32
CLINTONVILLE   FAIR      30  25  80 CALM      30.37R
OSHKOSH        FAIR      35  30  82 CALM      30.37S
$$

WIZ032>034-041-042-053>061-220800-
SOUTHWEST WISCONSIN

CITY           SKY/WX    TMP DP  RH WIND       PRES   REMARKS
LA CROSSE      FAIR      41  32  70 E3        30.35S
SPARTA         FAIR      30  27  88 CALM      30.37S
VIROQUA        FAIR      44  32  63 E6        30.34F
BOSCOBEL       CLOUDY    35  32  88 NE3       30.34F
PRAIRIE DU CHI CLOUDY    40  33  74 CALM      30.34S
PLATTEVILLE    CLOUDY    44  35  71 E6        30.33F
$$

WIZ056-057-062-063-064-067-068-220800-
SOUTH CENTRAL WISCONSIN

CITY           SKY/WX    TMP DP  RH WIND       PRES   REMARKS
REEDSBURG      FAIR      36  32  85 CALM      30.35F
BARABOO/DELLS  FAIR      35  30  82 CALM      30.35F
LONE ROCK      NOT AVBL
MINERAL POINT  MOCLDY    45  32  61 E6        30.33F
MADISON        FAIR      34  32  92 CALM      30.35F
MIDDLETON      FAIR      36  34  92 CALM      30.36F
WATERTOWN      FAIR      33  31  92 CALM      30.36S
MONROE         CLOUDY    43  30  61 E6        30.33F
JANESVILLE     FAIR      37  30  75 CALM      30.36F
$$

WIZ051-052-058>065-066-070>072-220800-
SOUTHEAST WISCONSIN

CITY           SKY/WX    TMP DP  RH WIND       PRES   REMARKS
MILWAUKEE      MOCLDY    41  24  51 CALM      30.37F
WAUKESHA       MOCLDY    32  27  80 CALM      30.38S
MILWAUKEE/TIMM FAIR      34  25  69 CALM      30.38F
RACINE         CLOUDY    38  28  67 CALM      30.39S
BURLINGTON     FAIR      32  26  77 CALM      30.37S
KENOSHA        FAIR      35  26  69 CALM      30.37S
FOND DU LAC    FAIR      34  28  79 CALM      30.37F
SHEBOYGAN      FAIR      32  29  88 CALM      30.37F
WEST BEND      FAIR      32  28  86 CALM      30.37F
JUNEAU         FAIR      37  32  83 CALM      30.38F
$$

LSZ147-162-220800-
LAKE SUPERIOR

STATION/POSITION TIME  TEMP    WIND        PRES    WAVE
                       AIR SEA DIR/SP/G            HT/PER
                 (UTC) (F)     (DEG/KT/KT) (MB)    (FT/S)
DEVILS ISLAND    0600           10/  5/  6 1028.7R
SAXON HARBOR     0640   29     180/  3/  4 1027.1F
$$

LMZ867-665-643>646-220800-
LAKE MICHIGAN

STATION/POSITION TIME  TEMP    WIND        PRES    WAVE
                       AIR SEA DIR/SP/G            HT/PER
                 (UTC) (F)     (DEG/KT/KT) (MB)    (FT/S)
NORTHPORT PIER   0640   37                 1028.4S
KEWAUNEE LAKESHO 0630   33     280/  2/  2 1027.9S
SHEBOYGAN LAKESH 0600   44     220/  5/  5 1029.2F
PORT WASHINGTON  0640   35     260/  4/  5 1029.5S
MILWAUKEE LAKESH 0640   42     320/  2/  2   N/A
KENOSHA   LAKESH 0600   41                 1028.4
$$

TC  - TEMPERATURE IN CELSIUS
VSB - VISIBILITY IN STATUTE MILES
WCI - WIND CHILL INDEX
HX  - HEAT INDEX





USA.gov is the U.S. government's official web portal to all federal, state and local government web resources and services.